[[{"header":{"parameterUnit":"m.s-1","parameterCategory":1,"la1":30.2991,"la2":30.254,"lo1":-89.0895,"lo2":-89.0444,"dy":0.0017,"dx":0.0017,"nx":28,"ny":28,"refTime":"2025-06-17T03:00:00:Z","depth":0,"parameterNumber":2,"parameterNumberName":"U-component_of_WINDS"},"data":[0,0,0,0,0,0,0,0,0,0,0,0,0,0,0,0,0,0,0,0,0,0,0,0,0,0,0,0,0,0,0,0,0,0,0,0,0,0,0,0,0,0,0,0,0,0,0,0,0,0,0,0,0,0,0,0,0,0,0.7226,0.7227,0,0.7367,0.7369,0.737,0.7435,0.7435,0.7435,0.7435,0.7583,0.7587,0.7591,0,0,0,0,0,0,0,0,0,0,0,0,0,0.7015,0.7019,0.7226,0.7227,0.7229,0.7367,0.7369,0.7371,0.7435,0.7435,0.7435,0.7435,0.7582,0.7586,0.7591,0,0,0,0,0,0,0,0,0,0,0,0,0,0.7126,0.702,0.7225,0.7278,0.7284,0.7366,0.7369,0.7371,0.7435,0.7435,0.7435,0.7435,0.758,0.7586,0.7592,0.7634,0,0,0.7611,0.7613,0,0,0,0,0,0,0,0,0.712,0.7134,0.7268,0.7274,0.7281,0.7383,0.7349,0.7459,0.7436,0.7378,0.7435,0.7435,0.7517,0.7528,0.7555,0.764,0.7647,0.7611,0.7615,0.7617,0.7619,0,0,0,0,0,0,0,0.7112,0.7128,0.7282,0.727,0.7278,0.7296,0.7311,0.737,0.7447,0.7383,0.7388,0.7404,0.7521,0.7549,0.7559,0.7649,0.7611,0.7616,0.762,0.7623,0.7777,0.7777,0,0,0,0,0,0,0.7096,0.7122,0.7277,0.7286,0.7199,0.73,0.7317,0.7351,0.7447,0.7461,0.7404,0.7406,0.7539,0.7552,0.7565,0.762,0.7617,0.7623,0.7627,0.7776,0.7777,0.7777,0,0,0,0,0,0,0.7091,0.7109,0.7272,0.7205,0.7227,0.7303,0.7341,0.7354,0.7383,0.7462,0.7477,0.7419,0.7539,0.7556,0.7616,0.7626,0.7626,0.7631,0.7776,0.7776,0.7777,0.7731,0,0,0,0,0,0,0.7084,0.7107,0.7122,0.7205,0.723,0.7319,0.7342,0.7357,0.7393,0.7397,0.748,0.7494,0.754,0.7606,0.7622,0.7635,0.7636,0.7775,0.7776,0.7777,0.7732,0.773,0.7729,0,0,0,0,0,0.7077,0.7104,0.7123,0.7141,0.7252,0.732,0.7334,0.7387,0.7393,0.741,0.7461,0.7491,0.7622,0.7612,0.763,0.7645,0.7775,0.7776,0.7777,0.7733,0.7731,0.7729,0,0,0,0,0,0,0.7022,0.7116,0.7138,0.7193,0.7247,0.733,0.7354,0.7382,0.7437,0.744,0.7503,0.7521,0.7576,0.7616,0.7603,0.7691,0.7701,0.7706,0.7662,0.766,0.7659,0.7648,0.7641,0,0,0,0,0,0.7016,0.7062,0.7143,0.7184,0.721,0.7277,0.7308,0.7344,0.7404,0.7428,0.7483,0.7541,0.7596,0.763,0.7685,0.7738,0.7758,0.7757,0.7755,0.7754,0.7757,0.7789,0.779,0.778,0.778,0.778,0,0,0.7005,0.7062,0.7088,0.7174,0.7221,0.7268,0.7296,0.7345,0.7382,0.7436,0.7495,0.7538,0.7607,0.7664,0.7692,0.7699,0.7764,0.7755,0.7753,0.7757,0.779,0.7791,0.7792,0.7781,0.7781,0.7781,0,0,0.7009,0.7056,0.7096,0.7142,0.7212,0.7256,0.7266,0.7344,0.7375,0.7435,0.7477,0.7522,0.7614,0.7662,0.7698,0.772,0.775,0.7736,0.7727,0.7757,0.7758,0.7759,0.7768,0.777,0.7739,0.7739,0.7739,0,0.6986,0.7059,0.7113,0.716,0.7197,0.7247,0.7288,0.7331,0.7415,0.744,0.7447,0.7564,0.7614,0.7683,0.7689,0.7716,0.773,0.7727,0.7754,0.7755,0.7757,0.7766,0.7769,0.7737,0.7737,0.7737,0.7738,0,0.7028,0.7078,0.7102,0.7181,0.7221,0.7265,0.7326,0.7361,0.7393,0.7436,0.7498,0.756,0.7628,0.7647,0.7679,0.7721,0.7723,0.7741,0.7753,0.7755,0.7764,0.7768,0.7734,0.7735,0.7735,0.7736,0,0,0.7002,0.711,0.7118,0.7155,0.7236,0.7276,0.7323,0.7388,0.7417,0.7474,0.7515,0.7592,0.7609,0.765,0.7688,0.7715,0.7729,0.773,0.7732,0.7728,0.778,0.7767,0.777,0.7749,0.775,0.7751,0.7775,0,0.7018,0.7102,0.7152,0.7217,0.7264,0.7312,0.7353,0.7408,0.745,0.7497,0.7544,0.7598,0.7616,0.7641,0.767,0.7721,0.7741,0.772,0.7789,0.7791,0.7771,0.7775,0.7761,0.778,0.7779,0.7779,0.778,0,0.7047,0.7102,0.717,0.7247,0.7268,0.7304,0.7369,0.7412,0.7476,0.7505,0.755,0.7589,0.7641,0.7648,0.7722,0.7707,0.7738,0.7768,0.777,0.7779,0.7786,0.7784,0.7788,0.779,0.7786,0.7786,0.7785,0,0.7022,0.7113,0.7166,0.7196,0.7286,0.731,0.7349,0.7412,0.7448,0.7505,0.753,0.7592,0.7626,0.7674,0.7728,0.7728,0.7797,0.7809,0.7823,0.7822,0.7836,0.7834,0.7845,0.7855,0.7855,0.7855,0.7855,0,0.7034,0.7075,0.7156,0.7188,0.7236,0.7293,0.7339,0.7382,0.7437,0.748,0.7526,0.7565,0.7634,0.7683,0.7726,0.778,0.7796,0.7821,0.7832,0.7818,0.7814,0.784,0.784,0.7856,0.7855,0.7855,0.7855,0,0.7014,0.707,0.7131,0.7211,0.7232,0.7263,0.7333,0.7367,0.7411,0.7465,0.7481,0.7551,0.7611,0.7669,0.7749,0.7778,0.7833,0.7847,0.7811,0.7817,0.7829,0.7827,0.7856,0.7863,0.7867,0.7867,0.7867,0,0.7018,0.7051,0.7134,0.7165,0.7203,0.7253,0.729,0.7349,0.7386,0.7461,0.7486,0.7548,0.7601,0.7694,0.7753,0.7815,0.7832,0.7838,0.7841,0.7825,0.7833,0.783,0.7834,0.7836,0.7835,0.7835,0.7835,0,0.7021,0.7047,0.7098,0.7159,0.7202,0.7254,0.7307,0.733,0.7399,0.7438,0.7499,0.754,0.7621,0.7683,0.7752,0.7793,0.7826,0.7833,0.784,0.7826,0.7803,0.7816,0.7806,0.7832,0.7833,0.7833,0.7833,0.7833,0.7014,0.7045,0.7108,0.7164,0.721,0.7259,0.7295,0.7344,0.7395,0.7465,0.7497,0.7558,0.7621,0.7717,0.7757,0.7807,0.7816,0.7825,0.7828,0.7829,0.7826,0.7795,0.782,0.782,0.782,0.782,0.782,0,0.7019,0.7062,0.7113,0.7185,0.723,0.7255,0.7316,0.7351,0.7404,0.746,0.7511,0.7581,0.7642,0.7705,0.7769,0.7797,0.7813,0.7812,0.7811,0.782,0.7815,0.7803,0.7797,0.7797,0.7797,0.7797,0.7797,0.7797,0.7027,0.7081,0.7115,0.7192,0.7236,0.7295,0.7328,0.7373,0.7418,0.7494,0.7544,0.7584,0.7644,0.7713,0.777,0.7787,0.7809,0.7803,0.7824,0.7819,0.782,0.7822,0.7811,0.7807,0.7807,0.7826,0.7826,0.7826]},{"header":{"parameterUnit":"m.s-1","parameterCategory":1,"la1":30.2991,"la2":30.254,"lo1":-89.0895,"lo2":-89.0444,"dy":0.0017,"dx":0.0017,"nx":28,"ny":28,"refTime":"2025-06-17T03:00:00:Z","depth":0,"parameterNumber":3,"parameterNumberName":"V-component_of_WINDS"},"data":[0,0,0,0,0,0,0,0,0,0,0,0,0,0,0,0,0,0,0,0,0,0,0,0,0,0,0,0,0,0,0,0,0,0,0,0,0,0,0,0,0,0,0,0,0,0,0,0,0,0,0,0,0,0,0,0,0,0,6.2069,6.207,0,6.2183,6.2184,6.2186,6.2171,6.2169,6.2167,6.2166,6.2271,6.2275,6.228,0,0,0,0,0,0,0,0,0,0,0,0,0,6.1825,6.183,6.2069,6.2071,6.2072,6.2183,6.2184,6.2186,6.2171,6.2169,6.2167,6.2165,6.227,6.2275,6.228,0,0,0,0,0,0,0,0,0,0,0,0,0,6.1934,6.1831,6.2069,6.2078,6.208,6.2182,6.2184,6.2186,6.2172,6.2169,6.2166,6.2164,6.2268,6.2274,6.2281,6.2377,0,0,6.2302,6.2305,0,0,0,0,0,0,0,0,6.1928,6.1943,6.2076,6.2078,6.208,6.216,6.2137,6.225,6.2173,6.2137,6.2166,6.2163,6.2236,6.2245,6.2272,6.2382,6.2387,6.2302,6.2306,6.2309,6.2311,0,0,0,0,0,0,0,6.192,6.1938,6.2114,6.2077,6.208,6.2072,6.2085,6.2158,6.22,6.214,6.2139,6.2153,6.2236,6.2265,6.2274,6.2388,6.2302,6.2308,6.2312,6.2315,6.2579,6.2582,0,0,0,0,0,0,6.1912,6.1932,6.211,6.2117,6.1996,6.2079,6.2093,6.2137,6.2199,6.2206,6.2155,6.2152,6.2255,6.2266,6.2278,6.2393,6.2309,6.2316,6.2319,6.2576,6.258,6.2583,0,0,0,0,0,0,6.1907,6.1928,6.2106,6.2024,6.2046,6.2086,6.2136,6.2141,6.217,6.2211,6.2217,6.2179,6.2254,6.2268,6.2353,6.2396,6.2319,6.2325,6.2573,6.2577,6.2581,6.2625,0,0,0,0,0,0,6.19,6.1927,6.1967,6.2026,6.2051,6.2183,6.2139,6.2145,6.2183,6.218,6.2234,6.2241,6.2253,6.2343,6.2359,6.2404,6.233,6.2569,6.2575,6.258,6.262,6.2631,6.264,0,0,0,0,0,6.1892,6.1973,6.197,6.1991,6.2103,6.2186,6.2199,6.2215,6.2187,6.2225,6.2251,6.2239,6.2389,6.2352,6.237,6.2418,6.2566,6.2573,6.258,6.2616,6.2628,6.2639,0,0,0,0,0,0,6.1916,6.1981,6.1978,6.2082,6.2129,6.2183,6.2233,6.2228,6.2281,6.2276,6.2289,6.2301,6.2386,6.241,6.2367,6.2512,6.2473,6.2484,6.2494,6.2507,6.2516,6.2508,6.2336,0,0,0,0,0,6.1934,6.2,6.2051,6.2137,6.2162,6.2193,6.2229,6.2237,6.2285,6.2303,6.2335,6.2378,6.2435,6.2472,6.2526,6.2623,6.2632,6.2664,6.2674,6.2682,6.2691,6.274,6.2754,6.2605,6.2605,6.2605,0,0,6.197,6.2014,6.2054,6.2143,6.2181,6.2244,6.221,6.2279,6.2324,6.2312,6.2395,6.2419,6.2468,6.2558,6.2599,6.2581,6.2734,6.269,6.2696,6.2701,6.2749,6.2763,6.2775,6.261,6.2609,6.2608,0,0,6.207,6.2111,6.2187,6.2225,6.2283,6.2303,6.232,6.2375,6.2392,6.2476,6.2467,6.2519,6.2617,6.2652,6.2682,6.279,6.278,6.2807,6.2858,6.2907,6.2919,6.2929,6.2966,6.2979,6.2816,6.2816,6.2816,0,6.2108,6.2208,6.2225,6.2295,6.2333,6.2327,6.2401,6.2435,6.2506,6.253,6.2509,6.2631,6.2663,6.276,6.2786,6.2811,6.2829,6.2802,6.2916,6.2927,6.2937,6.2972,6.2986,6.2819,6.2819,6.2818,6.2818,0,6.2249,6.2318,6.2371,6.2443,6.2486,6.2557,6.2581,6.2622,6.2624,6.2645,6.2727,6.2766,6.2827,6.285,6.2853,6.2946,6.2933,6.2914,6.2875,6.2954,6.2987,6.3001,6.2823,6.2822,6.2821,6.282,0,0,6.237,6.2449,6.2469,6.25,6.2562,6.2613,6.2681,6.2744,6.2777,6.2824,6.288,6.2962,6.2944,6.2978,6.2984,6.3026,6.3107,6.3001,6.3002,6.3019,6.321,6.3224,6.324,6.31,6.3103,6.3105,6.3205,0,6.2474,6.2601,6.2617,6.2727,6.2789,6.2782,6.2841,6.2883,6.2903,6.2954,6.2974,6.3031,6.3005,6.3025,6.3066,6.3089,6.3145,6.3081,6.3149,6.3151,6.3137,6.3258,6.3273,6.3366,6.3219,6.3221,6.3223,0,6.2615,6.2669,6.2787,6.2838,6.2864,6.2918,6.2975,6.3025,6.3069,6.308,6.3118,6.3117,6.3183,6.3141,6.323,6.3186,6.3214,6.3228,6.3232,6.3239,6.3192,6.3267,6.3397,6.341,6.3244,6.3242,6.324,0,6.2689,6.2791,6.2874,6.2901,6.2963,6.3,6.3027,6.307,6.3105,6.3153,6.3176,6.3229,6.3259,6.3298,6.331,6.3279,6.3398,6.3358,6.3406,6.3406,6.3432,6.343,6.3568,6.345,6.345,6.345,6.345,0,6.2804,6.2876,6.2909,6.296,6.3038,6.3053,6.3128,6.3152,6.319,6.3242,6.3238,6.3285,6.3299,6.3348,6.3357,6.3428,6.3441,6.3449,6.3451,6.345,6.3449,6.3468,6.3462,6.3454,6.3453,6.3452,6.3451,0,6.2901,6.2927,6.3016,6.3067,6.3082,6.3137,6.3178,6.3225,6.3243,6.3309,6.3324,6.3352,6.3409,6.3426,6.3493,6.3499,6.3582,6.3578,6.3569,6.3568,6.3616,6.3611,6.3771,6.3792,6.3661,6.3662,6.3663,0,6.2974,6.3029,6.3086,6.3123,6.3152,6.321,6.3247,6.3261,6.3299,6.3353,6.3392,6.3449,6.3496,6.3587,6.361,6.3661,6.3658,6.371,6.3665,6.3662,6.3657,6.3654,6.3658,6.3718,6.372,6.3721,6.3722,0,6.3099,6.3108,6.3163,6.3223,6.3267,6.3313,6.3358,6.3386,6.3406,6.3448,6.3508,6.3545,6.3614,6.367,6.3721,6.3743,6.3735,6.3736,6.375,6.3749,6.3741,6.3745,6.3591,6.3732,6.3731,6.373,6.373,6.3729,6.3185,6.3233,6.3281,6.3341,6.3376,6.3417,6.3463,6.3488,6.3539,6.36,6.3604,6.3668,6.3707,6.3776,6.3801,6.3848,6.3833,6.3853,6.3858,6.3863,6.3866,6.3734,6.3858,6.3857,6.3857,6.3857,6.3857,0,6.3309,6.3339,6.3395,6.3458,6.3504,6.3495,6.3542,6.3581,6.3639,6.3678,6.3724,6.3791,6.3845,6.3872,6.3924,6.3956,6.3954,6.3969,6.3967,6.3972,6.3878,6.3861,6.3971,6.3971,6.3971,6.3971,6.3971,6.3971,6.3379,6.3459,6.3473,6.3569,6.3597,6.3663,6.369,6.3726,6.3758,6.3834,6.388,6.3898,6.3931,6.3985,6.4032,6.4038,6.4056,6.4074,6.4078,6.399,6.3979,6.3968,6.3951,6.4078,6.4079,6.4168,6.4169,6.4169]}]]